RYR69BF EGSS-EPGD

Flight info

Callsign RYR69BF
Flight time 1h 43m
Altitude 35000
Route CLN P44 SOMVA DCT MAVAS DCT PETIK DCT ANDIK DCT MALYK DCT LUWIL DCT BINKA DCT LUXAL L730 KOSEX
Aircraft B738/M-SDE2E3FGHIRWXY/LB1

Departure

Time 2026-05-04 18:57
Airport London Stansted Airport (EGSS)

Arrival

Time 2026-05-04 20:40
Airport Gdańsk Lech Wałęsa Airport (EPGD)
Time Latitude Longitude Altitude Speed Heading
2026-05-04 18:22 51.89213 0.26003 351 ft 0 kts 43°
2026-05-04 18:47 51.89212 0.26002 351 ft 2 kts 43°
2026-05-04 18:47 51.89199 0.25980 361 ft 4 kts 37°
2026-05-04 18:47 51.89177 0.25965 354 ft 4 kts 348°
2026-05-04 18:47 51.89157 0.25982 361 ft 2 kts 313°
2026-05-04 18:48 51.89156 0.25983 361 ft 2 kts 313°
2026-05-04 18:51 51.89160 0.25975 353 ft 3 kts 313°
2026-05-04 18:51 51.89204 0.25901 357 ft 16 kts 314°
2026-05-04 18:51 51.89299 0.25733 351 ft 21 kts 311°
2026-05-04 18:52 51.89362 0.25575 351 ft 9 kts 259°
2026-05-04 18:52 51.89320 0.25494 351 ft 11 kts 223°
2026-05-04 18:52 51.89240 0.25373 357 ft 21 kts 223°
2026-05-04 18:52 51.89112 0.25182 351 ft 29 kts 224°
2026-05-04 18:53 51.88946 0.24933 351 ft 36 kts 223°
2026-05-04 18:53 51.88760 0.24651 350 ft 37 kts 222°
2026-05-04 18:53 51.88570 0.24369 352 ft 37 kts 223°
2026-05-04 18:53 51.88389 0.24094 344 ft 35 kts 222°
2026-05-04 18:54 51.88220 0.23841 347 ft 33 kts 223°
2026-05-04 18:54 51.88050 0.23588 340 ft 32 kts 222°
2026-05-04 18:54 51.87890 0.23346 340 ft 31 kts 223°
2026-05-04 18:54 51.87757 0.23147 336 ft 13 kts 225°
2026-05-04 18:55 51.87741 0.23022 336 ft 13 kts 310°
2026-05-04 18:55 51.87836 0.22850 333 ft 2 kts 314°
2026-05-04 18:55 51.87856 0.22818 335 ft 6 kts 314°
2026-05-04 18:56 51.87900 0.22740 331 ft 12 kts 311°
2026-05-04 18:56 51.87957 0.22675 333 ft 8 kts
2026-05-04 18:56 51.88004 0.22735 327 ft 11 kts 45°
2026-05-04 18:56 51.88198 0.23025 330 ft 77 kts 43°
2026-05-04 18:57 51.88774 0.23881 346 ft 145 kts 39°
2026-05-04 18:57 51.89565 0.25047 998 ft 152 kts 41°
2026-05-04 18:57 51.90330 0.26190 1944 ft 151 kts 43°
2026-05-04 18:57 51.91084 0.27508 2628 ft 175 kts 54°
2026-05-04 18:58 51.91655 0.29484 2946 ft 212 kts 74°
2026-05-04 18:58 51.91669 0.31985 3386 ft 235 kts 102°
2026-05-04 18:58 51.90975 0.34442 3937 ft 245 kts 118°
2026-05-04 18:58 51.90166 0.36914 3988 ft 258 kts 116°
2026-05-04 18:59 51.89344 0.39583 3975 ft 267 kts 116°
2026-05-04 18:59 51.88528 0.42275 4002 ft 267 kts 115°
2026-05-04 18:59 51.87714 0.45014 4323 ft 273 kts 115°
2026-05-04 18:59 51.86889 0.47812 4944 ft 277 kts 115°
2026-05-04 19:00 51.86071 0.50599 5069 ft 275 kts 115°
2026-05-04 19:00 51.85368 0.53524 5602 ft 284 kts 100°
2026-05-04 19:00 51.85256 0.56739 5989 ft 289 kts 88°
2026-05-04 19:00 51.85330 0.59985 6518 ft 292 kts 86°
2026-05-04 19:01 51.85426 0.63245 7654 ft 288 kts 86°
2026-05-04 19:01 51.85530 0.66486 8761 ft 289 kts 86°
2026-05-04 19:01 51.85818 0.69717 9706 ft 295 kts 69°
2026-05-04 19:01 51.86752 0.72693 10532 ft 303 kts 58°
2026-05-04 19:02 51.87907 0.75717 10886 ft 327 kts 57°
2026-05-04 19:02 51.89163 0.78889 11540 ft 340 kts 56°
2026-05-04 19:02 51.90445 0.82104 12543 ft 340 kts 57°
2026-05-04 19:02 51.91740 0.85333 13487 ft 344 kts 56°
2026-05-04 19:03 51.93051 0.88591 14234 ft 352 kts 56°
2026-05-04 19:03 51.94379 0.91876 15062 ft 355 kts 56°
2026-05-04 19:03 51.95752 0.95247 15802 ft 362 kts 56°
2026-05-04 19:03 51.97061 0.98750 16600 ft 365 kts 65°
2026-05-04 19:04 51.97977 1.02600 17408 ft 369 kts 72°
2026-05-04 19:04 51.98788 1.06595 18130 ft 375 kts 73°
2026-05-04 19:04 51.99583 1.10645 18879 ft 378 kts 73°
2026-05-04 19:04 52.00391 1.14731 19535 ft 383 kts 73°
2026-05-04 19:05 52.01223 1.18865 20231 ft 387 kts 73°
2026-05-04 19:05 52.02071 1.23015 20920 ft 390 kts 72°
2026-05-04 19:05 52.02939 1.27219 21578 ft 394 kts 72°
2026-05-04 19:05 52.03820 1.31461 22219 ft 399 kts 72°
2026-05-04 19:06 52.04716 1.35773 22720 ft 407 kts 72°
2026-05-04 19:06 52.05632 1.40168 23288 ft 413 kts 72°
2026-05-04 19:06 52.06553 1.44594 23897 ft 415 kts 72°
2026-05-04 19:06 52.07479 1.49053 24465 ft 417 kts 72°
2026-05-04 19:07 52.08409 1.53541 25012 ft 420 kts 72°
2026-05-04 19:07 52.09343 1.58062 25531 ft 423 kts 72°
2026-05-04 19:07 52.10279 1.62604 26041 ft 426 kts 73°
2026-05-04 19:07 52.11223 1.67192 26549 ft 429 kts 73°
2026-05-04 19:08 52.12170 1.71811 27036 ft 432 kts 73°
2026-05-04 19:08 52.13123 1.76467 27534 ft 435 kts 73°
2026-05-04 19:08 52.14079 1.81150 28010 ft 437 kts 73°
2026-05-04 19:08 52.15037 1.85856 28476 ft 440 kts 73°
2026-05-04 19:09 52.16002 1.90604 28918 ft 443 kts 73°
2026-05-04 19:09 52.16971 1.95385 29367 ft 446 kts 73°
2026-05-04 19:09 52.17946 2.00205 29740 ft 450 kts 73°
2026-05-04 19:09 52.18925 2.05063 30081 ft 454 kts 73°
2026-05-04 19:10 52.19912 2.09965 30437 ft 456 kts 73°
2026-05-04 19:10 52.20900 2.14889 30806 ft 458 kts 73°
2026-05-04 19:10 52.21878 2.19769 31144 ft 460 kts 73°
2026-05-04 19:10 52.22870 2.24739 31467 ft 462 kts 73°
2026-05-04 19:11 52.23865 2.29734 31806 ft 464 kts 73°
2026-05-04 19:11 52.24859 2.34735 32247 ft 462 kts 73°
2026-05-04 19:11 52.25844 2.39705 32743 ft 460 kts 73°
2026-05-04 19:11 52.26827 2.44675 33171 ft 460 kts 73°
2026-05-04 19:12 52.27808 2.49653 33483 ft 461 kts 73°
2026-05-04 19:12 52.29772 2.59650 34203 ft 461 kts 73°
2026-05-04 19:12 52.30748 2.64634 34590 ft 460 kts 74°
2026-05-04 19:13 52.31678 2.69621 34911 ft 459 kts 75°
2026-05-04 19:13 52.32569 2.74647 35196 ft 460 kts 75°
2026-05-04 19:13 52.33443 2.79673 35500 ft 460 kts 76°
2026-05-04 19:13 52.34315 2.84700 35824 ft 460 kts 75°
2026-05-04 19:14 52.35192 2.89730 36144 ft 460 kts 75°
2026-05-04 19:14 52.36073 2.94762 36415 ft 460 kts 75°
2026-05-04 19:14 52.36955 2.99799 36634 ft 462 kts 76°
2026-05-04 19:14 52.37842 3.04871 36842 ft 464 kts 75°
2026-05-04 19:15 52.38730 3.09955 37051 ft 466 kts 76°
2026-05-04 19:15 52.40565 3.20197 37024 ft 469 kts 73°
2026-05-04 19:16 52.42667 3.30228 37012 ft 462 kts 72°
2026-05-04 19:16 52.44803 3.40145 37029 ft 461 kts 72°
2026-05-04 19:17 52.46901 3.50088 37015 ft 462 kts 72°
2026-05-04 19:17 52.48972 3.60069 37020 ft 463 kts 72°
2026-05-04 19:18 52.51037 3.70086 37037 ft 466 kts 72°
2026-05-04 19:18 52.52079 3.75162 37147 ft 470 kts 72°
2026-05-04 19:18 52.53122 3.80251 37400 ft 471 kts 72°
2026-05-04 19:18 52.54163 3.85340 37755 ft 469 kts 72°
2026-05-04 19:19 52.55198 3.90411 38089 ft 467 kts 72°
2026-05-04 19:19 52.56228 3.95477 38356 ft 468 kts 72°
2026-05-04 19:19 52.57256 4.00543 38582 ft 468 kts 72°
2026-05-04 19:19 52.58286 4.05635 38762 ft 469 kts 72°
2026-05-04 19:20 52.59313 4.10720 38957 ft 469 kts 72°
2026-05-04 19:20 52.61368 4.20958 39011 ft 472 kts 73°
2026-05-04 19:21 52.62854 4.31400 39018 ft 467 kts 80°
2026-05-04 19:21 52.64032 4.41893 39013 ft 465 kts 81°
2026-05-04 19:22 52.65308 4.52235 39014 ft 463 kts 77°
2026-05-04 19:22 52.66940 4.62496 39012 ft 463 kts 76°
2026-05-04 19:23 52.68619 4.72734 39023 ft 463 kts 76°
2026-05-04 19:23 52.70262 4.83058 39017 ft 463 kts 76°
2026-05-04 19:24 52.71851 4.93289 39018 ft 464 kts 76°
2026-05-04 19:24 52.73436 5.03625 39011 ft 465 kts 76°
2026-05-04 19:25 52.75015 5.13992 39014 ft 466 kts 77°
2026-05-04 19:25 52.76591 5.24400 39012 ft 468 kts 77°
2026-05-04 19:26 52.78162 5.34836 39007 ft 469 kts 77°
2026-05-04 19:26 52.79730 5.45317 39005 ft 470 kts 77°
2026-05-04 19:27 52.81291 5.55821 39000 ft 471 kts 77°
2026-05-04 19:27 52.82845 5.66359 39009 ft 472 kts 77°
2026-05-04 19:28 52.84391 5.76899 38999 ft 472 kts 77°
2026-05-04 19:28 52.85671 5.85682 39007 ft 472 kts 77°
2026-05-04 19:29 52.87201 5.96249 38999 ft 472 kts 77°
2026-05-04 19:29 52.88720 6.06816 38998 ft 471 kts 77°
2026-05-04 19:30 52.90238 6.17442 39004 ft 471 kts 77°
2026-05-04 19:30 52.91725 6.27933 38990 ft 470 kts 77°
2026-05-04 19:31 52.93210 6.38477 38990 ft 470 kts 77°
2026-05-04 19:31 52.94686 6.49031 38985 ft 470 kts 78°
2026-05-04 19:32 52.96151 6.59579 39010 ft 469 kts 78°
2026-05-04 19:32 52.97606 6.70132 39018 ft 469 kts 78°
2026-05-04 19:33 52.99053 6.80700 39010 ft 470 kts 78°
2026-05-04 19:33 53.00492 6.91281 39000 ft 470 kts 78°
2026-05-04 19:34 53.01920 7.01865 38998 ft 470 kts 78°
2026-05-04 19:34 53.03343 7.12488 38976 ft 471 kts 78°
2026-05-04 19:35 53.04756 7.23112 38993 ft 471 kts 78°
2026-05-04 19:35 53.06161 7.33752 38994 ft 472 kts 78°
2026-05-04 19:36 53.07557 7.44404 38994 ft 472 kts 78°
2026-05-04 19:36 53.08944 7.55070 38988 ft 472 kts 78°
2026-05-04 19:37 53.10323 7.65752 38987 ft 472 kts 78°
2026-05-04 19:37 53.11693 7.76438 38993 ft 472 kts 78°
2026-05-04 19:38 53.13052 7.87130 39001 ft 472 kts 78°
2026-05-04 19:38 53.14402 7.97834 38995 ft 473 kts 79°
2026-05-04 19:39 53.15745 8.08556 39004 ft 473 kts 79°
2026-05-04 19:39 53.17078 8.19294 38990 ft 473 kts 79°
2026-05-04 19:40 53.18401 8.30027 38998 ft 473 kts 79°
2026-05-04 19:40 53.19715 8.40778 38995 ft 473 kts 79°
2026-05-04 19:41 53.21021 8.51539 38996 ft 473 kts 79°
2026-05-04 19:41 53.22315 8.62300 38993 ft 473 kts 79°
2026-05-04 19:42 53.23602 8.73082 38982 ft 474 kts 80°
2026-05-04 19:42 53.24878 8.83868 38990 ft 473 kts 79°
2026-05-04 19:43 53.26144 8.94650 38991 ft 473 kts 80°
2026-05-04 19:43 53.27400 9.05433 38987 ft 473 kts 80°
2026-05-04 19:44 53.28645 9.16219 38987 ft 473 kts 80°
2026-05-04 19:44 53.29879 9.27001 38972 ft 472 kts 80°
2026-05-04 19:45 53.31096 9.37721 38979 ft 472 kts 80°
2026-05-04 19:45 53.32310 9.48509 38971 ft 472 kts 80°
2026-05-04 19:46 53.33514 9.59300 38970 ft 472 kts 81°
2026-05-04 19:46 53.34710 9.70107 38977 ft 472 kts 80°
2026-05-04 19:47 53.35896 9.80923 38974 ft 473 kts 80°
2026-05-04 19:47 53.37073 9.91752 38966 ft 473 kts 80°
2026-05-04 19:48 53.38249 10.02671 38968 ft 473 kts 81°
2026-05-04 19:48 53.39401 10.13457 38967 ft 473 kts 81°
2026-05-04 19:49 53.40549 10.24310 38967 ft 473 kts 81°
2026-05-04 19:49 53.41688 10.35172 38961 ft 473 kts 81°
2026-05-04 19:50 53.42817 10.46046 38968 ft 473 kts 81°
2026-05-04 19:50 53.43936 10.56921 38969 ft 473 kts 81°
2026-05-04 19:51 53.45046 10.67811 38966 ft 474 kts 81°
2026-05-04 19:51 53.46147 10.78709 38964 ft 474 kts 81°
2026-05-04 19:52 53.47239 10.89623 38950 ft 474 kts 81°
2026-05-04 19:52 53.48318 11.00529 38961 ft 474 kts 82°
2026-05-04 19:53 53.49391 11.11456 38975 ft 474 kts 81°
2026-05-04 19:53 53.50453 11.22390 38968 ft 474 kts 81°
2026-05-04 19:54 53.51505 11.33335 38964 ft 475 kts 81°
2026-05-04 19:54 53.52548 11.44281 38961 ft 475 kts 82°
2026-05-04 19:55 53.53581 11.55248 38964 ft 475 kts 82°
2026-05-04 19:55 53.54603 11.66202 38969 ft 475 kts 82°
2026-05-04 19:56 53.55617 11.77182 38965 ft 475 kts 82°
2026-05-04 19:56 53.56622 11.88179 38967 ft 475 kts 82°
2026-05-04 19:57 53.57616 11.99175 38965 ft 476 kts 82°
2026-05-04 19:57 53.58600 12.10175 38960 ft 476 kts 82°
2026-05-04 19:58 53.59575 12.21197 38971 ft 476 kts 83°
2026-05-04 19:58 53.60541 12.32222 38970 ft 476 kts 83°
2026-05-04 19:59 53.61495 12.43249 38978 ft 477 kts 82°
2026-05-04 19:59 53.62441 12.54299 38971 ft 477 kts 82°
2026-05-04 20:00 53.63377 12.65362 38958 ft 477 kts 83°
2026-05-04 20:00 53.64301 12.76417 38968 ft 477 kts 83°
2026-05-04 20:01 53.65206 12.87332 38972 ft 477 kts 83°
2026-05-04 20:01 53.66111 12.98386 38970 ft 477 kts 83°
2026-05-04 20:02 53.67008 13.09485 38973 ft 478 kts 83°
2026-05-04 20:02 53.67902 13.20684 38986 ft 486 kts 83°
2026-05-04 20:03 53.68800 13.32067 38977 ft 492 kts 83°
2026-05-04 20:03 53.69694 13.43533 38978 ft 493 kts 83°
2026-05-04 20:04 53.70577 13.55011 38979 ft 494 kts 83°
2026-05-04 20:04 53.71450 13.66503 38965 ft 493 kts 83°
2026-05-04 20:05 53.72309 13.77969 38985 ft 492 kts 83°
2026-05-04 20:05 53.73156 13.89417 38977 ft 490 kts 83°
2026-05-04 20:06 53.73990 14.00833 38978 ft 489 kts 83°
2026-05-04 20:06 53.74808 14.12202 38967 ft 487 kts 83°
2026-05-04 20:07 53.75617 14.23553 38959 ft 486 kts 83°
2026-05-04 20:07 53.76441 14.34873 38967 ft 485 kts 83°
2026-05-04 20:08 53.77329 14.46171 38972 ft 485 kts 83°
2026-05-04 20:08 53.78208 14.57394 38978 ft 485 kts 83°
2026-05-04 20:09 53.79073 14.68703 38990 ft 486 kts 83°
2026-05-04 20:09 53.79923 14.80043 38983 ft 487 kts 83°
2026-05-04 20:10 53.80763 14.91415 38992 ft 487 kts 83°
2026-05-04 20:10 53.81595 15.02808 39000 ft 488 kts 83°
2026-05-04 20:11 53.82416 15.14214 38989 ft 489 kts 83°
2026-05-04 20:11 53.83218 15.25492 38959 ft 469 kts 84°
2026-05-04 20:11 53.83599 15.30899 38962 ft 455 kts 84°
2026-05-04 20:12 53.83968 15.36173 38841 ft 448 kts 84°
2026-05-04 20:12 53.84331 15.41407 38148 ft 451 kts 84°
2026-05-04 20:12 53.84699 15.46757 36952 ft 465 kts 83°
2026-05-04 20:12 53.85077 15.52295 35730 ft 481 kts 83°
2026-05-04 20:13 53.85465 15.57992 34626 ft 493 kts 83°
2026-05-04 20:13 53.85725 15.61837 33932 ft 500 kts 83°
2026-05-04 20:13 53.86122 15.67733 32959 ft 505 kts 83°
2026-05-04 20:13 53.86649 15.75632 31922 ft 505 kts 83°
2026-05-04 20:14 53.86908 15.79550 31411 ft 505 kts 83°
2026-05-04 20:14 53.87296 15.85460 30618 ft 505 kts 84°
2026-05-04 20:14 53.87683 15.91388 29714 ft 507 kts 84°
2026-05-04 20:14 53.88066 15.97313 28770 ft 506 kts 84°
2026-05-04 20:15 53.88445 16.03227 28029 ft 501 kts 84°
2026-05-04 20:15 53.88816 16.09051 27417 ft 494 kts 84°
2026-05-04 20:15 53.89180 16.14801 26800 ft 487 kts 84°
2026-05-04 20:15 53.89536 16.20479 26197 ft 481 kts 84°
2026-05-04 20:16 53.89885 16.26086 25603 ft 475 kts 84°
2026-05-04 20:16 53.90227 16.31634 25015 ft 471 kts 85°
2026-05-04 20:16 53.90565 16.37132 24395 ft 468 kts 85°
2026-05-04 20:16 53.90898 16.42596 23796 ft 464 kts 85°
2026-05-04 20:17 53.91226 16.48017 23303 ft 457 kts 85°
2026-05-04 20:17 53.91543 16.53303 23043 ft 451 kts 85°
2026-05-04 20:17 53.91947 16.58658 22787 ft 463 kts 82°
2026-05-04 20:17 53.92463 16.64088 22524 ft 468 kts 81°
2026-05-04 20:18 53.93026 16.69528 22254 ft 466 kts 80°
2026-05-04 20:18 53.93589 16.74852 21988 ft 463 kts 80°
2026-05-04 20:18 53.94157 16.80287 21723 ft 460 kts 80°
2026-05-04 20:18 53.94701 16.85616 21462 ft 458 kts 81°
2026-05-04 20:19 53.95234 16.90942 21202 ft 456 kts 81°
2026-05-04 20:19 53.95755 16.96236 20939 ft 455 kts 81°
2026-05-04 20:19 53.96263 17.01456 20706 ft 453 kts 81°
2026-05-04 20:19 53.96771 17.06731 20441 ft 452 kts 81°
2026-05-04 20:20 53.97275 17.11990 20190 ft 450 kts 81°
2026-05-04 20:20 53.97776 17.17234 19945 ft 449 kts 81°
2026-05-04 20:20 53.98273 17.22464 19701 ft 448 kts 81°
2026-05-04 20:20 53.98764 17.27659 19454 ft 444 kts 81°
2026-05-04 20:21 53.99251 17.32827 19199 ft 442 kts 81°
2026-05-04 20:21 53.99735 17.37984 18973 ft 441 kts 81°
2026-05-04 20:21 54.00692 17.48265 18519 ft 439 kts 81°
2026-05-04 20:22 54.01165 17.53382 18291 ft 438 kts 81°
2026-05-04 20:22 54.01635 17.58493 18025 ft 437 kts 81°
2026-05-04 20:22 54.02102 17.63593 17755 ft 435 kts 82°
2026-05-04 20:22 54.02565 17.68667 17477 ft 433 kts 82°
2026-05-04 20:23 54.03022 17.73710 17216 ft 431 kts 82°
2026-05-04 20:23 54.03476 17.78737 16950 ft 429 kts 82°
2026-05-04 20:23 54.03925 17.83739 16686 ft 427 kts 82°
2026-05-04 20:23 54.04369 17.88706 16432 ft 425 kts 82°
2026-05-04 20:24 54.04809 17.93665 16174 ft 423 kts 82°
2026-05-04 20:24 54.05245 17.98590 15922 ft 421 kts 82°
2026-05-04 20:24 54.05678 18.03506 15672 ft 419 kts 82°
2026-05-04 20:24 54.06107 18.08387 15254 ft 415 kts 82°
2026-05-04 20:25 54.06528 18.13216 14753 ft 408 kts 82°
2026-05-04 20:25 54.06939 18.17952 14234 ft 403 kts 82°
2026-05-04 20:25 54.07345 18.22642 13706 ft 398 kts 82°
2026-05-04 20:25 54.07743 18.27279 13122 ft 393 kts 82°
2026-05-04 20:26 54.08135 18.31858 12576 ft 388 kts 82°
2026-05-04 20:26 54.08520 18.36378 12046 ft 384 kts 82°
2026-05-04 20:26 54.08899 18.40851 11526 ft 379 kts 82°
2026-05-04 20:26 54.09273 18.45273 11024 ft 376 kts 82°
2026-05-04 20:27 54.09637 18.49605 10857 ft 362 kts 82°
2026-05-04 20:27 54.09988 18.53789 10685 ft 352 kts 82°
2026-05-04 20:27 54.10329 18.57892 10538 ft 351 kts 82°
2026-05-04 20:27 54.10670 18.61997 10385 ft 346 kts 82°
2026-05-04 20:28 54.10998 18.65972 10228 ft 335 kts 82°
2026-05-04 20:28 54.11317 18.69841 10083 ft 324 kts 82°
2026-05-04 20:28 54.11625 18.73593 9927 ft 316 kts 82°
2026-05-04 20:28 54.11926 18.77282 9612 ft 313 kts 82°
2026-05-04 20:29 54.12223 18.80938 9305 ft 310 kts 82°
2026-05-04 20:29 54.12513 18.84519 9004 ft 307 kts 83°
2026-05-04 20:29 54.12804 18.88113 8727 ft 305 kts 83°
2026-05-04 20:29 54.13086 18.91614 8598 ft 296 kts 83°
2026-05-04 20:30 54.13361 18.95041 8451 ft 286 kts 83°
2026-05-04 20:30 54.13627 18.98384 7989 ft 285 kts 83°
2026-05-04 20:30 54.13932 19.01732 7500 ft 285 kts 74°
2026-05-04 20:30 54.14857 19.04642 7051 ft 278 kts 43°
2026-05-04 20:31 54.16371 19.06542 6671 ft 267 kts 21°
2026-05-04 20:31 54.18018 19.07790 6272 ft 263 kts 17°
2026-05-04 20:31 54.19753 19.08577 5798 ft 254 kts 352°
2026-05-04 20:31 54.21340 19.07648 5526 ft 237 kts 316°
2026-05-04 20:32 54.22394 19.05587 5304 ft 228 kts 302°
2026-05-04 20:32 54.23292 19.03354 5066 ft 228 kts 299°
2026-05-04 20:32 54.24146 19.01105 5013 ft 221 kts 300°
2026-05-04 20:32 54.24919 18.98928 4990 ft 208 kts 293°
2026-05-04 20:33 54.25489 18.96727 4982 ft 199 kts 289°
2026-05-04 20:33 54.26003 18.94565 4988 ft 195 kts 289°
2026-05-04 20:33 54.26521 18.92414 4995 ft 195 kts 290°
2026-05-04 20:33 54.27040 18.90284 5015 ft 192 kts 290°
2026-05-04 20:34 54.27556 18.88167 5015 ft 195 kts 290°
2026-05-04 20:34 54.28076 18.86036 4987 ft 192 kts 290°
2026-05-04 20:34 54.28586 18.83949 4754 ft 187 kts 290°
2026-05-04 20:34 54.29078 18.81935 4536 ft 180 kts 290°
2026-05-04 20:35 54.29556 18.79980 4290 ft 176 kts 290°
2026-05-04 20:35 54.30022 18.78071 4056 ft 172 kts 290°
2026-05-04 20:35 54.30475 18.76221 3847 ft 170 kts 290°
2026-05-04 20:35 54.30936 18.74338 3615 ft 167 kts 290°
2026-05-04 20:36 54.31373 18.72556 3418 ft 161 kts 290°
2026-05-04 20:36 54.31801 18.70809 3193 ft 156 kts 291°
2026-05-04 20:36 54.32215 18.69121 2982 ft 151 kts 291°
2026-05-04 20:36 54.32620 18.67467 2791 ft 150 kts 291°
2026-05-04 20:37 54.33024 18.65821 2590 ft 150 kts 291°
2026-05-04 20:37 54.33429 18.64176 2395 ft 149 kts 291°
2026-05-04 20:37 54.33828 18.62552 2198 ft 144 kts 291°
2026-05-04 20:37 54.34200 18.61040 2049 ft 133 kts 291°
2026-05-04 20:38 54.34556 18.59594 1842 ft 130 kts 291°
2026-05-04 20:38 54.34905 18.58175 1677 ft 129 kts 291°
2026-05-04 20:38 54.35256 18.56748 1505 ft 130 kts 291°
2026-05-04 20:38 54.35610 18.55310 1317 ft 131 kts 291°
2026-05-04 20:39 54.35967 18.53862 1120 ft 132 kts 291°
2026-05-04 20:39 54.36326 18.52410 966 ft 134 kts 291°
2026-05-04 20:39 54.36673 18.50934 842 ft 135 kts 290°
2026-05-04 20:39 54.37062 18.49474 618 ft 134 kts 292°
2026-05-04 20:40 54.37411 18.48027 479 ft 124 kts 292°
2026-05-04 20:40 54.37703 18.46830 455 ft 85 kts 294°
2026-05-04 20:40 54.37875 18.46149 457 ft 54 kts 294°
2026-05-04 20:40 54.38013 18.45820 454 ft 32 kts 320°
2026-05-04 20:41 54.38125 18.45714 454 ft 10 kts 22°
2026-05-04 20:41 54.38135 18.45819 454 ft 10 kts 111°
2026-05-04 20:41 54.38107 18.45928 457 ft 10 kts 114°
2026-05-04 20:41 54.38081 18.46034 458 ft 10 kts 111°
2026-05-04 20:42 54.38056 18.46141 458 ft 10 kts 111°
2026-05-04 20:42 54.38030 18.46244 458 ft 9 kts 114°
2026-05-04 20:42 54.38005 18.46344 457 ft 9 kts 112°
2026-05-04 20:42 54.37981 18.46443 458 ft 9 kts 112°
2026-05-04 20:43 54.37957 18.46538 457 ft 9 kts 112°
2026-05-04 20:43 54.37931 18.46643 458 ft 11 kts 113°
2026-05-04 20:43 54.37895 18.46785 458 ft 15 kts 113°
2026-05-04 20:43 54.37872 18.46943 459 ft 11 kts 60°
2026-05-04 20:44 54.37927 18.46994 459 ft 5 kts 22°
2026-05-04 20:44 54.37961 18.47017 459 ft 5 kts 18°
2026-05-04 20:44 54.37994 18.47016 459 ft 3 kts 351°
2026-05-04 20:44 54.38002 18.47014 457 ft 0 kts 352°
2026-05-04 20:45 54.38006 18.47013 458 ft 1 kts 353°
2026-05-04 20:45 54.38009 18.47013 459 ft 0 kts 353°